TimeAKST,TemperatureF,Dew PointF,Humidity,Sea Level PressureIn,VisibilityMPH,Wind Direction,Wind SpeedMPH,Gust SpeedMPH,PrecipitationIn,Events,Conditions,WindDirDegrees,DateUTC
12:35 AM,28.4,26.6,93,29.33,10.0,Calm,Calm,-,0.00,,Overcast,0,2013-01-26 09:35:00
12:48 AM,28.4,26.6,93,29.33,10.0,Calm,Calm,-,0.00,,Overcast,0,2013-01-26 09:48:00
12:53 AM,28.9,26.1,89,29.33,10.0,Calm,Calm,-,0.00,,Overcast,0,2013-01-26 09:53:00
1:07 AM,28.4,26.6,93,29.34,8.0,Calm,Calm,-,0.00,Snow,Light Snow,0,2013-01-26 10:07:00
1:53 AM,26.1,23.0,88,29.35,4.0,South,3.5,-,0.00,Snow,Light Snow,170,2013-01-26 10:53:00
2:00 AM,24.8,23.0,93,29.35,5.0,Calm,Calm,-,0.00,Snow,Light Snow,0,2013-01-26 11:00:00
2:15 AM,24.8,23.0,93,29.35,7.0,Calm,Calm,-,0.00,Snow,Light Snow,0,2013-01-26 11:15:00
3:53 AM,24.1,21.0,88,29.36,10.0,South,4.6,-,0.00,,Overcast,170,2013-01-26 12:53:00
4:53 AM,19.9,17.1,89,29.37,10.0,Calm,Calm,-,N/A,,Mostly Cloudy,0,2013-01-26 13:53:00
5:53 AM,18.0,15.1,88,29.38,10.0,Calm,Calm,-,N/A,,Partly Cloudy,0,2013-01-26 14:53:00
6:53 AM,17.1,15.1,92,29.39,10.0,Calm,Calm,-,N/A,,Overcast,0,2013-01-26 15:53:00
7:53 AM,19.0,15.1,85,29.39,10.0,Calm,Calm,-,N/A,,Overcast,0,2013-01-26 16:53:00
8:53 AM,18.0,15.1,88,29.42,10.0,Calm,Calm,-,N/A,,Mostly Cloudy,0,2013-01-26 17:53:00
9:53 AM,18.0,14.0,84,29.44,10.0,SW,4.6,-,N/A,,Mostly Cloudy,230,2013-01-26 18:53:00
10:53 AM,19.9,15.1,81,29.46,10.0,Calm,Calm,-,N/A,,Mostly Cloudy,0,2013-01-26 19:53:00
11:53 AM,21.0,16.0,81,29.47,10.0,SW,3.5,-,N/A,,Mostly Cloudy,220,2013-01-26 20:53:00
12:53 PM,23.0,16.0,74,29.47,10.0,Calm,Calm,-,N/A,,Mostly Cloudy,0,2013-01-26 21:53:00
1:53 PM,21.0,15.1,78,29.48,10.0,Calm,Calm,-,N/A,,Scattered Clouds,0,2013-01-26 22:53:00
2:53 PM,19.9,10.9,68,29.50,10.0,Calm,Calm,-,N/A,,Scattered Clouds,0,2013-01-26 23:53:00
3:53 PM,19.0,12.0,74,29.52,10.0,Calm,Calm,-,N/A,,Scattered Clouds,0,2013-01-27 00:53:00
4:53 PM,15.1,9.0,77,29.54,10.0,Calm,Calm,-,N/A,,Scattered Clouds,0,2013-01-27 01:53:00
5:53 PM,10.9,7.0,84,29.56,10.0,SW,3.5,-,N/A,,Clear,220,2013-01-27 02:53:00
6:53 PM,10.0,3.9,76,29.57,10.0,Calm,Calm,-,N/A,,Clear,0,2013-01-27 03:53:00
7:53 PM,7.0,3.9,87,29.59,10.0,Calm,Calm,-,N/A,,Clear,0,2013-01-27 04:53:00
8:53 PM,7.0,3.0,84,29.61,10.0,Calm,Calm,-,N/A,,Clear,0,2013-01-27 05:53:00
9:53 PM,3.9,1.0,88,29.63,10.0,Calm,Calm,-,N/A,,Clear,0,2013-01-27 06:53:00
10:53 PM,3.9,-0.0,84,29.64,10.0,Calm,Calm,-,N/A,,Clear,0,2013-01-27 07:53:00
11:53 PM,1.9,-2.0,83,29.65,10.0,Calm,Calm,-,N/A,,Clear,0,2013-01-27 08:53:00